sat.trackr.live / text

‹ back to catalog

STARLINK-35479

NORAD 66326 · 2025-253H

PAYLOAD ACTIVE UNKNOWN

§ Identity

Operator
Country
US
Launch date
2025-11-06
Launch site
AFETR
Launch vehicle
Mass (kg)
RCS (m²)

Purposes: comms

External: N2YO · Heavens-Above · Gunter

§ Orbital elements

Epoch: 2026-05-24T23:51:39.921120Z

Period
94.27 min
Inclination
43.0004°
Eccentricity
0.0001254
Mean motion
15.27591172 rev/d
Perigee alt
482.2 km
Apogee alt
483.9 km
Semi-major
6,861.2 km
B*
8.4199e-4
RAAN
141.6307°
Arg perigee
264.3110°
Mean anomaly
95.7598°
Rev number
3,191

§ Raw data

STARLINK-354791 66326U 25253H   26144.99421205  .00022988  00000+0  84199-3 0  99912 66326  43.0004 141.6307 0001254 264.3110  95.7598 15.27591172 31914

JSON: /api/v1/satellites/66326 · /tle

For live sub-satellite position, see the globe view (requires WebGL).

§ Visibility from observer

Set your observer location to see the next 7 days of passes ≥ 10°. The values pass through the URL so the page stays shareable.

No JS? Fill the form by hand. The geolocation button needs JavaScript.